カタログに戻る

COSMOS 1564

運用中ナビゲーションLEO
NORAD 15003·PAYLOAD·🇷🇺 Russia

打ち上げ May 28, 1984 から Plesetsk Cosmodrome

Loading…

次のパス (今後24時間)

TLE

最新Source: Space-Track

元期: Sep 14, 2026, 10:10 UTC

1 15003U 84052F   26257.42386066 -.00000023  00000-0 -44413-4 0  9992
2 15003  74.0111  58.3399 0032776 172.9950 214.3472 12.53586842935453

AllMySatでCOSMOS 1564をリアルタイム追跡

Download on the App Store